Norwood, MA

8:59 AM EDT on May 24, 2017 (GMT -0400)
Norwood Memorial

Weather History for KOWD - March, 2012

Change the Weather History Date:

Thursday, March 22, 2012

  Actual Average Record
Temperature  
Mean Temperature 68 °F -  
Max Temperature 84 °F 46 °F 84 °F (2012)
Min Temperature 52 °F 28 °F 18 °F (2002)
Cooling Degree Days 3    
Growing Degree Days 18 (Base 50)    
Moisture  
Dew Point 52 °F    
Average Humidity 66    
Maximum Humidity 94    
Minimum Humidity 25    
Precipitation  
Precipitation 0.00 in - - ()
Sea Level Pressure  
Sea Level Pressure 30.11 in    
Wind  
Wind Speed 5 mph (SW)    
Max Wind Speed 12 mph    
Max Gust Speed 18 mph    
Visibility 8 miles    
Events Fog    
Averages and records for this station are not official NWS values.
T = Trace of Precipitation, MM = Missing Value Source: NWS Daily Summary

Daily Weather History Graph

Daily Weather History Graph

Search for Another Location

Airport or City:

Trip Planner

Search our weather history database for the weather conditions in past years. The results will help you decide how hot, cold, wet, or windy it might be!

Date:

Astronomy

Mar. 22, 2012 Rise Set
Actual Time 6:43 AM EDT 6:59 PM EDT
Civil Twilight 6:15 AM EDT 7:27 PM EDT
Nautical Twilight 5:42 AM EDT 8:00 PM EDT
Astronomical Twilight 5:09 AM EDT 8:34 PM EDT
Moon 6:20 AM EDT (3/22) 7:22 PM EDT (3/22)
Length of Visible Light 13h 11m
Length of Day
12h 15m
New Moon, 0% of the Moon is Illuminated
Mar 22
New Moon
Mar 30
First Quarter
Apr 6
Full
Apr 13
Last Quarter
Apr 21
New

Hourly Weather History & Observations

Time (EDT) Temp. Dew Point Humidity Pressure Visibility Wind Dir Wind Speed Gust Speed Precip Events Conditions
12:53 AM 59.0 °F 54.0 °F 83% 30.23 in 10.0 mi South 4.6 mph - N/A   Clear
1:53 AM 57.9 °F 54.0 °F 87% 30.22 in 10.0 mi SSW 3.5 mph - N/A   Clear
2:53 AM 59.0 °F 55.0 °F 87% 30.19 in 10.0 mi SW 4.6 mph - N/A   Clear
3:53 AM 59.0 °F 55.0 °F 87% 30.19 in 10.0 mi Calm Calm - N/A   Clear
4:53 AM 57.9 °F 54.0 °F 87% 30.19 in 10.0 mi Calm Calm - N/A   Clear
5:30 AM 53.6 °F 51.8 °F 94% 30.19 in 1.5 mi Calm Calm - N/A   Clear
5:47 AM 53.6 °F 51.8 °F 94% 30.20 in 0.8 mi Calm Calm - N/A   Mostly Cloudy
5:53 AM 52.0 °F 50.0 °F 93% 30.20 in 0.2 mi Calm Calm - N/A Fog Fog
6:08 AM 53.6 °F 51.8 °F 94% 30.19 in 2.0 mi South 3.5 mph - N/A   Overcast
6:16 AM 53.6 °F 51.8 °F 94% 30.19 in 4.0 mi South 4.6 mph - N/A   Overcast
6:51 AM 57.2 °F 53.6 °F 88% 30.18 in 8.0 mi South 5.8 mph - N/A   Scattered Clouds
6:53 AM 57.0 °F 53.1 °F 87% 30.18 in 8.0 mi South 4.6 mph - N/A   Partly Cloudy
7:53 AM 60.1 °F 55.0 °F 83% 30.18 in 10.0 mi SSW 6.9 mph - N/A   Clear
8:53 AM 64.0 °F 55.0 °F 73% 30.17 in 10.0 mi WSW 9.2 mph - N/A   Clear
9:53 AM 68.0 °F 55.0 °F 63% 30.15 in 10.0 mi SW 10.4 mph - N/A   Clear
10:53 AM 72.0 °F 54.0 °F 53% 30.14 in 10.0 mi West 9.2 mph - N/A   Clear
11:53 AM 75.9 °F 54.0 °F 46% 30.12 in 10.0 mi West 11.5 mph 18.4 mph N/A   Clear
12:53 PM 78.1 °F 52.0 °F 40% 30.08 in 10.0 mi SW 9.2 mph - N/A   Clear
1:53 PM 81.0 °F 48.9 °F 33% 30.05 in 10.0 mi West 8.1 mph - N/A   Clear
2:53 PM 82.9 °F 46.9 °F 28% 30.02 in 10.0 mi WSW 8.1 mph - N/A   Clear
3:53 PM 84.0 °F 45.0 °F 25% 30.00 in 10.0 mi WNW 8.1 mph - N/A   Clear
4:53 PM 82.0 °F 48.0 °F 30% 29.98 in 10.0 mi WSW 11.5 mph - N/A   Clear
5:53 PM 81.0 °F 48.0 °F 31% 29.98 in 10.0 mi WSW 8.1 mph - N/A   Clear
6:53 PM 78.1 °F 48.0 °F 35% 29.99 in 10.0 mi WSW 5.8 mph - N/A   Clear
7:53 PM 70.0 °F 48.0 °F 46% 29.99 in 10.0 mi South 6.9 mph - N/A   Clear
8:53 PM 64.9 °F 53.1 °F 65% 30.01 in 10.0 mi Calm Calm - N/A   Clear
9:53 PM 70.0 °F 53.1 °F 55% 30.00 in 10.0 mi SW 5.8 mph - N/A   Clear
10:53 PM 68.0 °F 54.0 °F 61% 30.00 in 10.0 mi WSW 5.8 mph - N/A   Clear
11:53 PM 66.0 °F 54.0 °F 65% 30.00 in 10.0 mi Calm Calm - N/A   Clear